Location: ?????
(30.1667°N, 31.1000°E)
Time: 15:13:06
(UTC+00:00)

Daily predictions for brighter satellites

Satellite Brightness Start Highest point End
(mag) Time Altitude Azimuth Time Altitude Azimuth Time Altitude Azimuth
Okean 1-7 Rocket 4.2 15:15:21 10° NNW 15:19:39 60° W 15:23:56 10° S
Cosmos 1076 Rocket 3.6 15:16:08 10° N 15:20:22 53° E 15:24:34 10° SSE
UNK 4.2 15:16:33 10° N 15:21:02 63° WNW 15:25:30 10° SSW
SKYMED 2 4.4 15:19:04 10° NE 15:22:55 30° E 15:26:44 10° SSE
USA 59 Rocket 1.1 15:19:41 10° S 15:23:40 27° ESE 15:26:49 10° ENE
Cosmos 1953 Rocket 3.7 15:19:41 10° N 15:24:02 53° E 15:28:22 10° SSE
Cosmos 1805 4.1 15:22:15 10° NNE 15:24:53 21° E 15:27:32 10° SE
Cosmos 2263 Rocket 2.4 15:20:00 10° N 15:25:32 51° ENE 15:31:01 10° SE
Cosmos 1937 Rocket 3.5 15:21:19 10° SSW 15:26:30 89° ESE 15:31:41 10° NNE
Cosmos 2219 3.9 15:21:38 10° N 15:26:48 33° ENE 15:31:54 10° SE
Cosmos 1825 Rocket 4.0 15:25:24 10° NNW 15:29:40 65° W 15:33:53 10° S
SEDSat Delta rocket 3.8 15:25:21 10° WSW 15:30:33 66° SSE 15:36:30 10° E
Cosmos 858 Rocket 4.5 15:26:39 10° S 15:31:46 68° ESE 15:36:54 10° NNE
Cosmos 2369 4.3 15:29:50 10° SSW 15:35:27 60° WNW 15:41:07 10° NNE
SWAS 4.4 15:32:51 10° SSW 15:36:54 81° WNW 15:40:58 10° NNE
Meteor 1-26 Rocket 4.1 15:33:52 10° S 15:39:16 87° E 15:44:41 10° N
Cosmos-2242 3.2 15:38:00 10° S 15:42:13 73° W 15:46:28 10° N
Cosmos 2360 Rocket 3.3 15:39:05 10° SSE 15:43:27 23° ESE 15:47:09 13° NE
Meteor 1-5 Rocket 4.5 15:39:33 10° NNW 15:45:01 73° W 15:50:39 10° S
CZ-2D R/B 2.6 15:43:03 10° SSE 15:46:09 79° ENE 15:49:17 10° N
SMAP 3.6 15:43:24 10° S 15:48:00 65° W 15:52:37 10° NNW
IRS-P3 4.2 15:43:19 10° SSE 15:48:29 55° ENE 15:53:39 10° N
SAR-Lupe-3 3.6 15:46:14 10° N 15:48:41 78° W 15:51:07 10° SSW
Meteor 2-2 Rocket 4.4 15:43:05 10° S 15:48:44 79° W 15:54:22 10° N
Cosmos 2227 Rocket 3.4 15:45:33 10° NNW 15:50:56 47° WSW 15:56:18 10° S
CZ-2D R/B 4.4 15:47:36 10° SE 15:51:05 26° ENE 15:54:30 10° NNE
Landsat 7 3.9 15:46:31 10° S 15:51:08 78° WSW 15:55:48 10° NNW
NOSS 2-1 (E) 4.1 15:47:24 10° S 15:52:03 39° ESE 15:54:32 18° ENE
SJ-12 3.7 15:50:50 10° S 15:54:36 83° W 15:58:22 10° NNW
Cosmos 2058 Rocket 4.2 15:51:02 10° SSW 15:55:19 45° W 15:59:37 10° N
Cosmos 2219 Rocket 3.6 15:53:11 10° SE 15:56:37 17° E 15:57:36 16° E
SL-8 R/B 3.9 15:52:19 10° SSW 15:56:56 56° SE 16:00:07 20° ENE
SJ-6F 4.2 15:53:01 10° SSE 15:56:57 69° ENE 16:00:56 10° N
Hubble Space Telescope 1.2 15:53:40 10° W 15:57:22 53° S 16:00:32 13° ESE
ARIANE 5 R/B 2.8 15:54:16 10° S 15:59:17 74° WSW 16:04:25 10° NNW
COSMOS 2455 3.5 15:54:56 10° SW 16:00:49 57° WNW 16:06:45 10° NNE
Helios 1A Rocket 3.0 16:00:32 22° NE 16:02:10 35° E 16:05:17 10° SSE
MOS 1 Rocket 3.6 16:00:04 10° S 16:04:56 78° W 16:10:07 10° NNW
NOSS 2-1 (C) 3.3 16:02:20 10° SSW 16:07:09 72° ESE 16:09:20 24° NE
Cosmos 2333 Rocket 2.2 16:03:48 10° S 16:09:27 67° ESE 16:14:32 13° NNE
Cosmos 2322 Rocket 2.4 16:05:42 10° S 16:11:09 51° ESE 16:15:05 19° NE
Resurs 1-3 3.9 16:07:56 10° SE 16:11:55 39° ENE 16:15:56 10° N
Cosmos 1680 Rocket 3.9 16:08:06 10° N 16:13:00 39° ENE 16:17:53 10° SE
NOSS 3-1 (A) 4.2 16:10:22 10° SSE 16:12:56 18° ESE 16:12:56 18° ESE
Skynet4D Del rocket 3.9 16:10:31 10° W 16:15:57 64° S 16:19:47 22° ESE
PSLV R/B 3.8 16:15:48 10° SE 16:19:31 38° ENE 16:21:26 23° NNE
SJ-7 4.4 16:16:04 10° SSE 16:19:36 44° ENE 16:21:57 19° N
Sakura Rocket 3.4 16:16:50 10° W 16:21:58 61° S 16:23:59 28° ESE
YAOGAN 1 2.5 16:19:01 10° SSE 16:23:10 57° ENE 16:27:20 10° N
Cosmos 2285 Rocket 3.9 16:17:30 10° S 16:23:41 65° ESE 16:28:34 17° NNE
Palapa 6 Rocket 4.4 16:24:33 10° SW 16:28:09 25° S 16:29:33 20° SE
SPOT 1/Viking Rocket 3.8 16:28:25 10° S 16:33:35 72° WSW 16:38:47 10° NNW
NOAA 15 4.5 16:30:25 10° SSE 16:35:42 86° ENE 16:41:01 10° NNW
Cosmos 2315 Rocket 4.0 16:33:11 10° S 16:39:26 63° E 16:44:21 17° NNE
Cosmos 2333 4.2 16:34:30 10° S 16:40:10 64° ESE 16:42:10 40° NE
Cosmos 2082 4.1 16:35:51 10° NNW 16:41:31 65° WSW 16:47:09 10° S
COSMO-SKYMED 1 3.7 16:37:54 10° N 16:41:45 40° WNW 16:45:35 10° SW
S3M 4.0 16:35:54 10° S 16:42:16 89° W 16:48:35 10° N
SL-16 R/B 3.3 16:38:16 10° SW 16:43:33 41° WNW 16:48:52 10° N
Atlas Centaur 2 1.2 16:40:40 10° WSW 16:43:53 64° SSW 16:43:53 64° SSW
IRAS Rocket 4.0 16:41:27 10° SSE 16:46:54 73° ENE 16:52:21 10° N
Meteor 1-14 Rocket 4.0 16:41:46 10° N 16:47:26 79° E 16:52:58 10° S
NOSS 3-1 (C) 3.4 16:46:26 10° SW 16:50:42 49° WNW 16:52:26 33° N
Cosmos 2221 3.9 16:49:24 10° SSW 16:53:15 36° W 16:56:29 14° NNW
Cosmos 2227 4.0 16:50:19 10° NNW 16:55:55 65° ENE 16:55:57 65° ENE
Cosmos 883 Rocket 4.5 16:49:38 10° S 16:55:56 88° W 17:01:18 15° N
Cosmos 1125 Rocket 3.6 16:50:53 10° S 16:55:30 56° SE 16:55:30 56° SE
Meteor 2-9 Rocket 3.9 16:51:01 10° N 16:56:18 72° E 17:01:36 10° SSE
Cosmos 192 4.2 16:53:13 10° S 16:57:55 77° SE 16:57:55 77° SE
Meteor 1-19 Rocket 4.5 16:54:20 10° SSW 16:59:40 64° W 17:03:28 20° N
Cosmos 1844 Rocket 3.2 16:54:29 10° NNW 16:58:25 43° N 16:58:25 43° N
Cosmos 1709 Rocket 3.8 16:55:51 10° N 17:01:57 72° E 17:08:05 10° SSE
Cosmos 1707 4.4 16:59:27 10° SSW 17:01:15 25° WSW 17:01:15 25° WSW
Cosmos 1536 4.3 17:00:56 10° NNW 17:04:17 33° W 17:07:37 10° SSW
Cosmos 1745 Rocket 4.1 17:01:02 10° N 17:07:09 72° W 17:13:13 10° S
USA 59 Rocket 2.3 17:10:03 10° W 17:12:15 14° WNW 17:12:54 14° NW
SEDSat Delta rocket 3.7 17:10:53 10° W 17:16:20 77° NW 17:16:20 77° NW
BREEZE-M DEB (TANK) 4.1 17:17:37 10° WSW 17:22:35 72° NW 17:26:52 42° NE
Cosmos 2360 Rocket 3.5 17:22:00 10° SW 17:27:07 35° WNW 17:28:57 28° NNW
Hubble Space Telescope 3.7 17:34:01 10° WSW 17:34:43 13° WSW 17:34:43 13° WSW
Cosmos 2219 Rocket 3.0 17:34:34 10° SW 17:39:22 47° W 17:39:22 47° W
Cosmos 2322 Rocket 4.5 17:51:41 10° WSW 17:55:25 18° WNW 17:56:56 16° NW
Centaur D-1AR AC-39 4.2 18:14:12 10° WSW 19:04:58 14° E 19:32:46 10° E
